Time,TemperatureF,DewpointF,PressureIn,WindDirection,WindDirectionDegrees,WindSpeedMPH,WindSpeedGustMPH,Humidity,HourlyPrecipIn,Conditions,Clouds,dailyrainin,SoftwareType,DateUTC
2013-08-08 00:01:00,69.8,66.1,29.18,ESE,111,0.0,0.0,88,0.00,,BKN,0.00,VWS V13.01,2013-08-08 04:01:00,
2013-08-08 00:06:00,69.8,66.4,29.18,ESE,111,0.0,0.0,89,0.00,,BKN,0.00,VWS V13.01,2013-08-08 04:06:00,
2013-08-08 00:11:00,70.0,66.6,29.18,ESE,111,0.0,0.0,89,0.00,,BKN,0.00,VWS V13.01,2013-08-08 04:11:00,
2013-08-08 00:16:00,70.0,66.9,29.18,ESE,111,0.0,0.0,90,0.00,,BKN,0.00,VWS V13.01,2013-08-08 04:16:00,
2013-08-08 00:21:00,70.0,66.9,29.18,ESE,111,0.0,0.0,90,0.00,,BKN,0.00,VWS V13.01,2013-08-08 04:21:00,
2013-08-08 00:26:00,70.0,66.9,29.18,ESE,111,0.0,0.0,90,0.00,,BKN,0.00,VWS V13.01,2013-08-08 04:26:00,
2013-08-08 00:31:00,70.2,67.1,29.18,ESE,111,0.0,0.0,90,0.00,,BKN,0.00,VWS V13.01,2013-08-08 04:31:00,
2013-08-08 00:36:00,70.2,67.1,29.18,ESE,111,0.0,0.0,90,0.00,,BKN,0.00,VWS V13.01,2013-08-08 04:36:00,
2013-08-08 00:41:00,70.2,67.1,29.18,ESE,111,0.0,0.0,90,0.00,,BKN,0.00,VWS V13.01,2013-08-08 04:41:00,
2013-08-08 00:46:00,70.2,67.1,29.18,ESE,111,0.0,0.0,90,0.00,,BKN,0.00,VWS V13.01,2013-08-08 04:46:00,
2013-08-08 00:51:00,70.2,67.1,29.18,ESE,111,0.0,0.0,90,0.00,,BKN,0.00,VWS V13.01,2013-08-08 04:51:00,
2013-08-08 00:56:00,70.2,67.1,29.18,ESE,111,0.0,0.0,90,0.00,,BKN,0.00,VWS V13.01,2013-08-08 04:56:00,
2013-08-08 01:01:00,70.2,67.1,29.18,ESE,111,0.0,0.0,90,0.00,,BKN,0.00,VWS V13.01,2013-08-08 05:01:00,
2013-08-08 01:06:00,70.2,67.1,29.18,ESE,111,0.0,0.0,90,0.00,,BKN,0.00,VWS V13.01,2013-08-08 05:06:00,
2013-08-08 01:11:00,70.2,67.1,29.18,ESE,111,0.0,0.0,90,0.00,,BKN,0.00,VWS V13.01,2013-08-08 05:11:00,
2013-08-08 01:16:00,70.2,67.1,29.18,ESE,111,0.0,0.0,90,0.00,,BKN,0.00,VWS V13.01,2013-08-08 05:16:00,
2013-08-08 01:21:00,70.2,67.1,29.18,ESE,111,0.0,0.0,90,0.00,,BKN,0.00,VWS V13.01,2013-08-08 05:21:00,
2013-08-08 01:26:00,70.2,67.1,29.18,ESE,111,0.0,0.0,90,0.00,,BKN,0.00,VWS V13.01,2013-08-08 05:26:00,
2013-08-08 01:31:00,70.2,67.1,29.18,ESE,111,0.0,0.0,90,0.00,,BKN,0.00,VWS V13.01,2013-08-08 05:31:00,
2013-08-08 01:36:00,70.2,67.1,29.18,ESE,111,0.0,0.0,90,0.00,,BKN,0.00,VWS V13.01,2013-08-08 05:36:00,
2013-08-08 01:41:00,70.2,67.1,29.18,ESE,111,0.0,0.0,90,0.00,,BKN,0.00,VWS V13.01,2013-08-08 05:41:00,
2013-08-08 01:46:00,70.2,67.1,29.18,ESE,111,0.0,0.0,90,0.00,,BKN,0.00,VWS V13.01,2013-08-08 05:46:00,
2013-08-08 01:51:00,70.0,66.9,29.18,ESE,111,0.0,0.0,90,0.00,,BKN,0.00,VWS V13.01,2013-08-08 05:51:00,
2013-08-08 01:56:00,70.2,67.1,29.18,ESE,111,0.0,0.0,90,0.00,,BKN,0.00,VWS V13.01,2013-08-08 05:56:00,
2013-08-08 02:00:00,70.3,67.3,29.18,ESE,111,0.0,0.0,90,0.00,,BKN,0.00,VWS V13.01,2013-08-08 06:00:00,
2013-08-08 02:05:00,70.3,67.3,29.18,ESE,111,0.0,0.0,90,0.00,,BKN,0.00,VWS V13.01,2013-08-08 06:05:00,
2013-08-08 02:10:00,70.3,67.6,29.18,ESE,111,0.0,0.0,91,0.00,,BKN,0.00,VWS V13.01,2013-08-08 06:10:00,
2013-08-08 02:15:00,70.3,67.6,29.18,ESE,111,0.0,0.0,91,0.00,,BKN,0.00,VWS V13.01,2013-08-08 06:15:00,
2013-08-08 02:20:00,70.3,67.6,29.18,ESE,111,0.0,0.0,91,0.00,,BKN,0.00,VWS V13.01,2013-08-08 06:20:00,
2013-08-08 02:25:00,70.2,67.1,29.18,ESE,111,0.0,0.0,90,0.00,,BKN,0.00,VWS V13.01,2013-08-08 06:25:00,
2013-08-08 02:30:00,70.0,66.9,29.18,ESE,111,0.0,0.0,90,0.00,,BKN,0.00,VWS V13.01,2013-08-08 06:30:00,
2013-08-08 02:35:00,69.8,66.7,29.18,ESE,111,0.0,0.0,90,0.00,,BKN,0.00,VWS V13.01,2013-08-08 06:35:00,
2013-08-08 02:40:00,69.6,66.6,29.18,ESE,111,0.0,0.0,90,0.00,,BKN,0.00,VWS V13.01,2013-08-08 06:40:00,
2013-08-08 02:45:00,69.4,66.4,29.18,ESE,111,0.0,0.0,90,0.00,,BKN,0.00,VWS V13.01,2013-08-08 06:45:00,
2013-08-08 02:50:00,69.4,66.4,29.18,ESE,111,0.0,0.0,90,0.00,,BKN,0.00,VWS V13.01,2013-08-08 06:50:00,
2013-08-08 02:55:00,69.4,66.4,29.18,ESE,111,0.0,0.0,90,0.00,,BKN,0.00,VWS V13.01,2013-08-08 06:55:00,
2013-08-08 03:00:00,69.4,66.4,29.18,ESE,111,0.0,0.0,90,0.00,,BKN,0.00,VWS V13.01,2013-08-08 07:00:00,
2013-08-08 03:05:00,69.3,66.5,29.18,ESE,111,0.0,0.0,91,0.00,,BKN,0.00,VWS V13.01,2013-08-08 07:05:00,
2013-08-08 03:10:00,69.3,66.5,29.18,ESE,111,0.0,0.0,91,0.00,,BKN,0.00,VWS V13.01,2013-08-08 07:10:00,
2013-08-08 03:15:00,69.3,66.5,29.18,ESE,111,0.0,0.0,91,0.00,,BKN,0.00,VWS V13.01,2013-08-08 07:15:00,
2013-08-08 03:20:00,69.3,66.5,29.18,ESE,111,0.0,0.0,91,0.00,,BKN,0.00,VWS V13.01,2013-08-08 07:20:00,
2013-08-08 03:25:00,69.3,66.5,29.18,ESE,111,0.0,0.0,91,0.00,,BKN,0.00,VWS V13.01,2013-08-08 07:25:00,
2013-08-08 03:30:00,69.3,66.5,29.18,ESE,111,0.0,0.0,91,0.00,,BKN,0.00,VWS V13.01,2013-08-08 07:30:00,
2013-08-08 03:35:00,69.3,66.5,29.18,ESE,111,0.0,0.0,91,0.00,,BKN,0.00,VWS V13.01,2013-08-08 07:35:00,
2013-08-08 03:40:00,69.3,66.5,29.18,ESE,111,0.0,0.0,91,0.00,,BKN,0.00,VWS V13.01,2013-08-08 07:40:00,
2013-08-08 03:45:00,69.3,66.5,29.18,ESE,111,0.0,0.0,91,0.00,,BKN,0.00,VWS V13.01,2013-08-08 07:45:00,
2013-08-08 03:50:00,69.3,66.5,29.18,ESE,111,0.0,0.0,91,0.00,,BKN,0.00,VWS V13.01,2013-08-08 07:50:00,
2013-08-08 03:55:00,69.4,66.7,29.18,ESE,111,0.0,0.0,91,0.00,,BKN,0.00,VWS V13.01,2013-08-08 07:55:00,
2013-08-08 04:00:00,69.4,66.7,29.18,ESE,111,0.0,0.0,91,0.00,,BKN,0.00,VWS V13.01,2013-08-08 08:00:00,
2013-08-08 04:05:00,69.4,66.7,29.18,ESE,111,0.0,0.0,91,0.00,,BKN,0.00,VWS V13.01,2013-08-08 08:05:00,
2013-08-08 04:10:00,69.4,66.7,29.18,ESE,111,0.0,0.0,91,0.00,,BKN,0.00,VWS V13.01,2013-08-08 08:10:00,
2013-08-08 04:15:00,69.4,66.7,29.18,ESE,111,0.0,0.0,91,0.00,,BKN,0.00,VWS V13.01,2013-08-08 08:15:00,
2013-08-08 04:20:00,69.4,66.7,29.18,ESE,111,0.0,0.0,91,0.00,,BKN,0.00,VWS V13.01,2013-08-08 08:20:00,
2013-08-08 04:25:00,69.3,66.5,29.18,ESE,111,0.0,0.0,91,0.00,,BKN,0.00,VWS V13.01,2013-08-08 08:25:00,
2013-08-08 04:30:00,69.3,66.5,29.18,ESE,111,0.0,0.0,91,0.00,,BKN,0.00,VWS V13.01,2013-08-08 08:30:00,
2013-08-08 04:35:00,69.3,66.5,29.18,ESE,111,0.0,0.0,91,0.00,,BKN,0.00,VWS V13.01,2013-08-08 08:35:00,
2013-08-08 04:40:00,69.3,66.5,29.18,ESE,111,0.0,0.0,91,0.00,,BKN,0.00,VWS V13.01,2013-08-08 08:40:00,
2013-08-08 04:45:00,69.1,66.3,29.18,ESE,111,0.0,0.0,91,0.00,,BKN,0.00,VWS V13.01,2013-08-08 08:45:00,
2013-08-08 04:50:00,69.1,66.3,29.18,ESE,111,0.0,0.0,91,0.00,,BKN,0.00,VWS V13.01,2013-08-08 08:50:00,
2013-08-08 04:55:00,69.1,66.3,29.18,ESE,111,0.0,0.0,91,0.00,,BKN,0.00,VWS V13.01,2013-08-08 08:55:00,
2013-08-08 05:00:00,68.9,66.2,29.18,ESE,111,0.0,0.0,91,0.00,,BKN,0.00,VWS V13.01,2013-08-08 09:00:00,
2013-08-08 05:05:00,68.9,66.2,29.18,ESE,111,0.0,0.0,91,0.00,,BKN,0.00,VWS V13.01,2013-08-08 09:05:00,
2013-08-08 05:10:00,68.9,66.2,29.18,ESE,111,0.0,0.0,91,0.00,,BKN,0.00,VWS V13.01,2013-08-08 09:10:00,
2013-08-08 05:15:00,68.9,66.2,29.18,ESE,111,0.0,0.0,91,0.00,,BKN,0.00,VWS V13.01,2013-08-08 09:15:00,
2013-08-08 05:20:00,68.9,66.2,29.18,ESE,111,0.0,0.0,91,0.00,,BKN,0.00,VWS V13.01,2013-08-08 09:20:00,
2013-08-08 05:25:00,68.9,66.5,29.18,ESE,111,0.0,0.0,92,0.00,,BKN,0.00,VWS V13.01,2013-08-08 09:25:00,
2013-08-08 05:30:00,68.7,66.3,29.18,ESE,111,0.0,0.0,92,0.00,,BKN,0.00,VWS V13.01,2013-08-08 09:30:00,
2013-08-08 05:35:00,68.7,66.3,29.18,ESE,111,0.0,0.0,92,0.00,,BKN,0.00,VWS V13.01,2013-08-08 09:35:00,
2013-08-08 05:40:00,68.7,66.3,29.18,ESE,111,0.0,0.0,92,0.00,,BKN,0.00,VWS V13.01,2013-08-08 09:40:00,
2013-08-08 05:45:00,68.9,66.5,29.18,ESE,111,0.0,0.0,92,0.00,,BKN,0.00,VWS V13.01,2013-08-08 09:45:00,
2013-08-08 05:50:00,68.9,66.5,29.18,ESE,111,0.0,0.0,92,0.00,,BKN,0.00,VWS V13.01,2013-08-08 09:50:00,
2013-08-08 05:55:00,68.9,66.5,29.18,ESE,111,0.0,0.0,92,0.00,,BKN,0.00,VWS V13.01,2013-08-08 09:55:00,
2013-08-08 06:00:00,68.9,66.5,29.18,ESE,111,0.0,0.0,92,0.00,,BKN,0.00,VWS V13.01,2013-08-08 10:00:00,
2013-08-08 06:05:00,68.9,66.5,29.18,ESE,111,0.0,0.0,92,0.00,,BKN,0.00,VWS V13.01,2013-08-08 10:05:00,
2013-08-08 06:10:00,68.9,66.2,29.18,ESE,111,0.0,0.0,91,0.00,,BKN,0.00,VWS V13.01,2013-08-08 10:10:00,
2013-08-08 06:15:00,69.1,66.3,29.18,ESE,111,0.0,0.0,91,0.00,,BKN,0.00,VWS V13.01,2013-08-08 10:15:00,
2013-08-08 06:20:00,69.1,66.7,29.18,ESE,111,0.0,0.0,92,0.00,,BKN,0.00,VWS V13.01,2013-08-08 10:20:00,
2013-08-08 06:25:00,69.1,66.7,29.18,ESE,111,0.0,0.0,92,0.00,,BKN,0.00,VWS V13.01,2013-08-08 10:25:00,
2013-08-08 06:30:00,69.1,66.7,29.18,ESE,111,0.0,0.0,92,0.00,,BKN,0.00,VWS V13.01,2013-08-08 10:30:00,
2013-08-08 06:35:00,69.1,66.7,29.18,ESE,111,0.0,0.0,92,0.00,,BKN,0.00,VWS V13.01,2013-08-08 10:35:00,
2013-08-08 06:40:00,69.1,66.7,29.18,ESE,111,0.0,0.0,92,0.00,,BKN,0.00,VWS V13.01,2013-08-08 10:40:00,
2013-08-08 06:45:00,68.9,66.5,29.18,ESE,111,0.0,0.0,92,0.00,,BKN,0.00,VWS V13.01,2013-08-08 10:45:00,
2013-08-08 06:50:00,68.9,66.5,29.18,ESE,111,0.0,0.0,92,0.00,,BKN,0.00,VWS V13.01,2013-08-08 10:50:00,
2013-08-08 06:55:00,68.9,66.5,29.18,ESE,111,0.0,0.0,92,0.00,,BKN,0.00,VWS V13.01,2013-08-08 10:55:00,
2013-08-08 07:00:00,68.9,66.5,29.18,ESE,111,0.0,0.0,92,0.00,,BKN,0.00,VWS V13.01,2013-08-08 11:00:00,
2013-08-08 07:05:00,68.9,66.5,29.18,ESE,111,0.0,0.0,92,0.00,,BKN,0.00,VWS V13.01,2013-08-08 11:05:00,
2013-08-08 07:10:00,68.9,66.5,29.18,ESE,111,0.0,0.0,92,0.00,,BKN,0.00,VWS V13.01,2013-08-08 11:10:00,
2013-08-08 07:15:00,69.1,66.7,29.18,ESE,111,0.0,0.0,92,0.00,,BKN,0.00,VWS V13.01,2013-08-08 11:15:00,
2013-08-08 07:20:00,69.1,66.7,29.18,ESE,111,0.0,0.0,92,0.00,,BKN,0.00,VWS V13.01,2013-08-08 11:20:00,
2013-08-08 07:25:00,69.3,66.8,29.18,ESE,111,0.0,0.0,92,0.00,,BKN,0.00,VWS V13.01,2013-08-08 11:25:00,
2013-08-08 07:30:00,69.3,66.8,29.18,ESE,111,0.0,0.0,92,0.00,,BKN,0.00,VWS V13.01,2013-08-08 11:30:00,
2013-08-08 07:35:00,69.4,67.0,29.18,ESE,111,0.0,0.0,92,0.00,,BKN,0.00,VWS V13.01,2013-08-08 11:35:00,
2013-08-08 07:40:00,69.6,67.5,29.18,SW,234,2.7,2.7,93,0.00,,BKN,0.00,VWS V13.01,2013-08-08 11:40:00,
2013-08-08 07:45:00,69.8,67.7,29.18,SW,234,0.0,0.0,93,0.00,,BKN,0.00,VWS V13.01,2013-08-08 11:45:00,
2013-08-08 07:50:00,70.0,67.9,29.18,SW,234,0.0,2.7,93,0.00,,BKN,0.00,VWS V13.01,2013-08-08 11:50:00,
2013-08-08 07:55:00,70.2,68.1,29.18,SW,234,0.0,3.1,93,0.00,,BKN,0.00,VWS V13.01,2013-08-08 11:55:00,
2013-08-08 08:00:00,70.3,68.2,29.18,SW,234,0.0,0.0,93,0.00,,BKN,0.00,VWS V13.01,2013-08-08 12:00:00,
2013-08-08 08:05:00,70.7,68.6,29.18,SW,234,0.0,0.0,93,0.00,,BKN,0.00,VWS V13.01,2013-08-08 12:05:00,
2013-08-08 08:10:00,70.9,68.8,29.18,SW,234,0.0,0.0,93,0.00,,BKN,0.00,VWS V13.01,2013-08-08 12:10:00,
2013-08-08 08:15:00,70.9,68.8,29.18,SW,234,0.0,0.0,93,0.00,,BKN,0.00,VWS V13.01,2013-08-08 12:15:00,
2013-08-08 08:20:00,70.9,68.8,29.18,SW,234,0.0,0.0,93,0.00,,BKN,0.00,VWS V13.01,2013-08-08 12:20:00,
2013-08-08 08:25:00,71.1,68.9,29.18,SW,234,0.0,3.6,93,0.00,,BKN,0.00,VWS V13.01,2013-08-08 12:25:00,
2013-08-08 08:30:00,70.9,68.8,29.18,SW,234,0.0,0.0,93,0.00,,BKN,0.00,VWS V13.01,2013-08-08 12:30:00,
2013-08-08 08:35:00,70.9,68.8,29.18,SW,234,0.0,3.6,93,0.00,,BKN,0.00,VWS V13.01,2013-08-08 12:35:00,
2013-08-08 08:40:00,71.1,68.9,29.18,WNW,292,2.7,2.7,93,0.00,,BKN,0.00,VWS V13.01,2013-08-08 12:40:00,
2013-08-08 08:45:00,71.2,69.1,29.18,SE,132,0.0,0.0,93,0.00,,BKN,0.00,VWS V13.01,2013-08-08 12:45:00,
2013-08-08 08:50:00,71.8,70.0,29.18,West,263,0.0,0.0,94,0.00,,BKN,0.00,VWS V13.01,2013-08-08 12:50:00,
2013-08-08 08:55:00,72.5,70.7,29.18,WSW,248,3.1,3.1,94,0.00,,BKN,0.00,VWS V13.01,2013-08-08 12:55:00,
2013-08-08 09:00:00,72.9,71.0,29.18,SSE,147,0.0,0.0,94,0.00,,BKN,0.00,VWS V13.01,2013-08-08 13:00:00,
2013-08-08 09:05:00,73.8,71.9,29.18,SSE,147,0.0,0.0,94,0.00,,BKN,0.00,VWS V13.01,2013-08-08 13:05:00,
2013-08-08 09:10:00,74.3,72.5,29.18,SE,133,0.0,0.0,94,0.00,,BKN,0.00,VWS V13.01,2013-08-08 13:10:00,
2013-08-08 09:15:00,74.7,72.8,29.18,SSE,153,0.0,3.6,94,0.00,,BKN,0.00,VWS V13.01,2013-08-08 13:15:00,
2013-08-08 09:21:00,75.0,71.2,29.18,ESE,104,3.1,4.5,88,0.00,,BKN,0.00,VWS V13.01,2013-08-08 13:21:00,
2013-08-08 09:26:00,75.0,69.2,29.18,ESE,110,3.6,4.5,82,0.00,,BKN,0.00,VWS V13.01,2013-08-08 13:26:00,
2013-08-08 09:31:00,75.0,68.4,29.18,ESE,106,0.0,0.0,80,0.00,,BKN,0.00,VWS V13.01,2013-08-08 13:31:00,
2013-08-08 09:36:00,75.4,69.5,29.18,ESE,106,3.1,3.1,82,0.00,,BKN,0.00,VWS V13.01,2013-08-08 13:36:00,
2013-08-08 09:41:00,75.4,69.2,29.18,ESE,114,0.0,0.0,81,0.00,,BKN,0.00,VWS V13.01,2013-08-08 13:41:00,
2013-08-08 09:46:00,75.4,69.5,29.18,South,177,0.0,0.0,82,0.00,,BKN,0.00,VWS V13.01,2013-08-08 13:46:00,
2013-08-08 09:51:00,75.4,69.5,29.18,South,177,2.7,4.0,82,0.00,,BKN,0.00,VWS V13.01,2013-08-08 13:51:00,
2013-08-08 09:56:00,75.0,67.7,29.18,SSE,154,0.0,0.0,78,0.00,,BKN,0.00,VWS V13.01,2013-08-08 13:56:00,
2013-08-08 10:01:00,75.0,67.7,29.18,SSE,154,0.0,3.1,78,0.00,,BKN,0.00,VWS V13.01,2013-08-08 14:01:00,
2013-08-08 10:06:00,75.0,67.3,29.18,SSE,154,0.0,0.0,77,0.00,,BKN,0.00,VWS V13.01,2013-08-08 14:06:00,
2013-08-08 10:11:00,75.2,67.9,29.18,SSE,154,0.0,0.0,78,0.00,,BKN,0.00,VWS V13.01,2013-08-08 14:11:00,
2013-08-08 10:16:00,75.4,68.1,29.18,SSE,154,0.0,0.0,78,0.00,,BKN,0.00,VWS V13.01,2013-08-08 14:16:00,
2013-08-08 10:21:00,75.6,68.6,29.18,SSE,154,0.0,0.0,79,0.00,,BKN,0.00,VWS V13.01,2013-08-08 14:21:00,
2013-08-08 10:26:00,75.7,68.4,29.18,SSE,154,3.1,3.1,78,0.00,,BKN,0.00,VWS V13.01,2013-08-08 14:26:00,
2013-08-08 10:31:00,76.1,68.0,29.18,SSW,198,0.0,3.1,76,0.00,,BKN,0.00,VWS V13.01,2013-08-08 14:31:00,
2013-08-08 10:35:00,76.3,67.4,29.18,SSW,198,0.0,0.0,74,0.00,,BKN,0.00,VWS V13.01,2013-08-08 14:35:00,
2013-08-08 10:40:00,76.6,68.1,29.18,SSW,198,0.0,2.7,75,0.00,,BKN,0.00,VWS V13.01,2013-08-08 14:40:00,
2013-08-08 10:45:00,76.8,67.9,29.18,SSW,198,0.0,2.7,74,0.00,,BKN,0.00,VWS V13.01,2013-08-08 14:45:00,
2013-08-08 10:50:00,77.0,66.9,29.18,SSW,198,0.0,0.0,71,0.00,,BKN,0.00,VWS V13.01,2013-08-08 14:50:00,
2013-08-08 10:55:00,77.2,66.7,29.18,SSW,192,0.0,0.0,70,0.00,,BKN,0.00,VWS V13.01,2013-08-08 14:55:00,
2013-08-08 11:00:00,77.5,65.7,29.18,ESE,115,3.1,4.0,67,0.00,,BKN,0.00,VWS V13.01,2013-08-08 15:00:00,
2013-08-08 11:05:00,77.5,65.3,29.18,SE,145,2.7,3.6,66,0.00,,BKN,0.00,VWS V13.01,2013-08-08 15:05:00,
2013-08-08 11:10:00,77.7,65.5,29.18,SE,145,0.0,0.0,66,0.00,,BKN,0.00,VWS V13.01,2013-08-08 15:10:00,
2013-08-08 11:15:00,77.7,65.9,29.18,SE,145,0.0,0.0,67,0.00,,BKN,0.00,VWS V13.01,2013-08-08 15:15:00,
2013-08-08 11:20:00,77.7,65.9,29.18,SE,145,0.0,0.0,67,0.00,,BKN,0.00,VWS V13.01,2013-08-08 15:20:00,
2013-08-08 11:25:00,77.7,65.9,29.18,SE,145,0.0,0.0,67,0.00,,BKN,0.00,VWS V13.01,2013-08-08 15:25:00,
2013-08-08 11:30:00,77.7,65.9,29.18,SE,145,0.0,0.0,67,0.00,,BKN,0.00,VWS V13.01,2013-08-08 15:30:00,
2013-08-08 11:35:00,77.9,66.1,29.18,SE,144,0.0,0.0,67,0.00,,BKN,0.00,VWS V13.01,2013-08-08 15:35:00,
2013-08-08 11:40:00,77.7,65.9,29.18,SE,145,0.0,0.0,67,0.00,,BKN,0.00,VWS V13.01,2013-08-08 15:40:00,
2013-08-08 11:45:00,77.9,66.1,29.18,SE,145,0.0,0.0,67,0.00,,BKN,0.00,VWS V13.01,2013-08-08 15:45:00,
2013-08-08 11:50:00,77.9,65.6,29.18,SE,145,0.0,0.0,66,0.00,,BKN,0.00,VWS V13.01,2013-08-08 15:50:00,
2013-08-08 11:55:00,78.1,65.8,29.18,SE,145,0.0,0.0,66,0.00,,BKN,0.00,VWS V13.01,2013-08-08 15:55:00,
2013-08-08 12:00:00,78.1,65.8,29.18,SE,126,0.0,0.0,66,0.00,,BKN,0.00,VWS V13.01,2013-08-08 16:00:00,
2013-08-08 12:05:00,78.1,65.8,29.18,SE,143,0.0,2.7,66,0.00,,BKN,0.00,VWS V13.01,2013-08-08 16:05:00,
2013-08-08 12:10:00,77.9,65.6,29.18,SE,143,0.0,3.1,66,0.00,,BKN,0.00,VWS V13.01,2013-08-08 16:10:00,
2013-08-08 12:15:00,77.7,65.5,29.18,SE,143,0.0,2.7,66,0.00,,BKN,0.00,VWS V13.01,2013-08-08 16:15:00,
2013-08-08 12:20:00,77.7,65.0,29.18,West,259,2.7,4.5,65,0.00,,BKN,0.00,VWS V13.01,2013-08-08 16:20:00,
2013-08-08 12:25:00,77.5,64.9,29.18,West,259,0.0,0.0,65,0.00,,BKN,0.00,VWS V13.01,2013-08-08 16:25:00,
2013-08-08 12:30:00,77.7,65.5,29.18,West,259,0.0,0.0,66,0.00,,BKN,0.00,VWS V13.01,2013-08-08 16:30:00,
2013-08-08 12:35:00,77.7,65.5,29.18,ESE,118,0.0,0.0,66,0.00,,BKN,0.00,VWS V13.01,2013-08-08 16:35:00,
2013-08-08 12:40:00,77.7,65.0,29.18,South,183,0.0,3.6,65,0.00,,BKN,0.00,VWS V13.01,2013-08-08 16:40:00,
2013-08-08 12:45:00,77.9,65.2,29.18,SSE,155,0.0,3.1,65,0.00,,BKN,0.00,VWS V13.01,2013-08-08 16:45:00,
2013-08-08 12:50:00,78.3,65.5,29.18,SSE,156,0.0,0.0,65,0.00,,BKN,0.00,VWS V13.01,2013-08-08 16:50:00,
2013-08-08 12:55:00,78.6,65.0,29.18,SSE,155,0.0,4.0,63,0.00,,BKN,0.00,VWS V13.01,2013-08-08 16:55:00,
2013-08-08 13:00:00,79.0,65.3,29.18,SSE,151,0.0,3.6,63,0.00,,BKN,0.00,VWS V13.01,2013-08-08 17:00:00,
2013-08-08 13:05:00,79.9,65.2,29.18,SW,219,0.0,3.1,61,0.00,,BKN,0.00,VWS V13.01,2013-08-08 17:05:00,
2013-08-08 13:10:00,80.2,64.1,29.18,SW,220,3.1,5.4,58,0.00,,BKN,0.00,VWS V13.01,2013-08-08 17:10:00,
2013-08-08 13:15:00,80.2,63.1,29.18,SE,145,4.0,4.9,56,0.00,,BKN,0.00,VWS V13.01,2013-08-08 17:15:00,
2013-08-08 13:20:00,80.2,62.6,29.18,SSW,205,0.0,0.0,55,0.00,,BKN,0.00,VWS V13.01,2013-08-08 17:20:00,
2013-08-08 13:25:00,80.1,62.5,29.18,SSE,148,3.6,3.6,55,0.00,,BKN,0.00,VWS V13.01,2013-08-08 17:25:00,
2013-08-08 13:30:00,80.1,62.5,29.18,SSW,207,2.7,5.4,55,0.00,,BKN,0.00,VWS V13.01,2013-08-08 17:30:00,
2013-08-08 13:35:00,80.4,63.8,29.18,SE,143,3.1,4.0,57,0.00,,BKN,0.00,VWS V13.01,2013-08-08 17:35:00,
2013-08-08 13:40:00,80.4,63.3,29.18,WSW,257,3.6,4.0,56,0.00,,BKN,0.00,VWS V13.01,2013-08-08 17:40:00,
2013-08-08 13:45:00,80.4,62.8,29.18,SSW,210,3.1,4.0,55,0.00,,BKN,0.00,VWS V13.01,2013-08-08 17:45:00,
2013-08-08 13:50:00,80.1,63.0,29.18,West,270,5.4,6.3,56,0.00,,BKN,0.00,VWS V13.01,2013-08-08 17:50:00,
2013-08-08 13:55:00,79.7,63.1,29.18,West,270,0.0,3.6,57,0.00,,BKN,0.00,VWS V13.01,2013-08-08 17:55:00,
2013-08-08 14:00:00,79.3,63.3,29.18,WNW,298,0.0,0.0,58,0.00,,BKN,0.00,VWS V13.01,2013-08-08 18:00:00,
2013-08-08 14:05:00,79.0,63.4,29.18,WNW,284,0.0,0.0,59,0.00,,BKN,0.00,VWS V13.01,2013-08-08 18:05:00,
2013-08-08 14:10:00,78.8,63.8,29.18,SW,222,2.7,2.7,60,0.00,,BKN,0.00,VWS V13.01,2013-08-08 18:10:00,
2013-08-08 14:15:00,78.6,63.6,29.18,SW,222,0.0,0.0,60,0.00,,BKN,0.00,VWS V13.01,2013-08-08 18:15:00,
2013-08-08 14:20:00,78.6,64.1,29.18,SW,222,0.0,0.0,61,0.00,,BKN,0.00,VWS V13.01,2013-08-08 18:20:00,
2013-08-08 14:25:00,78.8,64.2,29.18,SW,221,0.0,0.0,61,0.00,,BKN,0.00,VWS V13.01,2013-08-08 18:25:00,
2013-08-08 14:30:00,79.2,65.0,29.18,SE,133,0.0,3.1,62,0.00,,BKN,0.00,VWS V13.01,2013-08-08 18:30:00,
2013-08-08 14:35:00,79.2,64.1,29.18,West,263,0.0,0.0,60,0.00,,BKN,0.00,VWS V13.01,2013-08-08 18:35:00,
2013-08-08 14:40:00,79.3,64.3,29.18,WNW,283,0.0,0.0,60,0.00,,BKN,0.00,VWS V13.01,2013-08-08 18:40:00,
2013-08-08 14:45:00,79.3,64.7,29.18,ESE,115,0.0,0.0,61,0.00,,BKN,0.00,VWS V13.01,2013-08-08 18:45:00,
2013-08-08 14:50:00,79.5,64.4,29.18,SSW,195,0.0,0.0,60,0.00,,BKN,0.00,VWS V13.01,2013-08-08 18:50:00,
2013-08-08 14:55:00,79.5,64.4,29.18,East,90,0.0,0.0,60,0.00,,BKN,0.00,VWS V13.01,2013-08-08 18:55:00,
2013-08-08 15:00:00,79.7,65.1,29.18,SSE,164,0.0,0.0,61,0.00,,BKN,0.00,VWS V13.01,2013-08-08 19:00:00,
2013-08-08 15:05:00,79.7,64.6,29.18,SSE,164,0.0,0.0,60,0.00,,BKN,0.00,VWS V13.01,2013-08-08 19:05:00,
2013-08-08 15:10:00,79.7,64.1,29.18,South,178,0.0,0.0,59,0.00,,BKN,0.00,VWS V13.01,2013-08-08 19:10:00,
2013-08-08 15:15:00,79.9,64.8,29.18,SSW,197,0.0,0.0,60,0.00,,BKN,0.00,VWS V13.01,2013-08-08 19:15:00,
2013-08-08 15:20:00,80.1,64.5,29.18,ESE,112,0.0,3.6,59,0.00,,BKN,0.00,VWS V13.01,2013-08-08 19:20:00,
2013-08-08 15:25:00,80.1,64.5,29.15,SE,132,0.0,0.0,59,0.00,,BKN,0.00,VWS V13.01,2013-08-08 19:25:00,
2013-08-08 15:30:00,79.9,64.3,29.15,SSW,200,0.0,0.0,59,0.00,,BKN,0.00,VWS V13.01,2013-08-08 19:30:00,
2013-08-08 15:35:00,79.7,64.1,29.15,SSE,149,0.0,0.0,59,0.00,,BKN,0.00,VWS V13.01,2013-08-08 19:35:00,
2013-08-08 15:40:00,79.5,64.9,29.15,SSE,150,0.0,0.0,61,0.00,,BKN,0.00,VWS V13.01,2013-08-08 19:40:00,
2013-08-08 15:45:00,79.3,65.2,29.15,SSE,150,0.0,0.0,62,0.00,,BKN,0.00,VWS V13.01,2013-08-08 19:45:00,
2013-08-08 15:51:00,79.5,65.8,29.15,SSE,167,0.0,4.9,63,0.00,,BKN,0.00,VWS V13.01,2013-08-08 19:51:00,
2013-08-08 15:57:00,79.9,65.7,29.15,WSW,245,3.6,4.5,62,0.00,,BKN,0.00,VWS V13.01,2013-08-08 19:57:00,
2013-08-08 16:03:00,79.9,65.2,29.15,SSE,148,2.7,4.5,61,0.00,,BKN,0.00,VWS V13.01,2013-08-08 20:03:00,
2013-08-08 16:08:00,79.9,65.7,29.15,SSW,206,0.0,2.7,62,0.00,,BKN,0.00,VWS V13.01,2013-08-08 20:08:00,
2013-08-08 16:13:00,80.1,65.9,29.15,East,95,0.0,5.4,62,0.00,,BKN,0.00,VWS V13.01,2013-08-08 20:13:00,
2013-08-08 16:18:00,80.4,66.7,29.15,South,176,0.0,3.1,63,0.00,,BKN,0.00,VWS V13.01,2013-08-08 20:18:00,
2013-08-08 16:23:00,80.8,66.6,29.15,ESE,117,0.0,3.6,62,0.00,,BKN,0.00,VWS V13.01,2013-08-08 20:23:00,
2013-08-08 16:29:00,81.5,66.8,29.12,SSE,157,2.7,4.5,61,0.00,,BKN,0.00,VWS V13.01,2013-08-08 20:29:00,
2013-08-08 16:34:00,81.9,66.1,29.12,ESE,115,2.7,4.5,59,0.00,,BKN,0.00,VWS V13.01,2013-08-08 20:34:00,
2013-08-08 16:39:00,82.0,65.8,29.12,ESE,116,0.0,3.6,58,0.00,,BKN,0.00,VWS V13.01,2013-08-08 20:39:00,
2013-08-08 16:44:00,81.9,65.2,29.12,SE,127,0.0,0.0,57,0.00,,BKN,0.00,VWS V13.01,2013-08-08 20:44:00,
2013-08-08 16:49:00,81.7,64.5,29.12,SE,143,0.0,4.0,56,0.00,,BKN,0.00,VWS V13.01,2013-08-08 20:49:00,
2013-08-08 16:54:00,81.5,64.8,29.12,ESE,104,0.0,0.0,57,0.00,,BKN,0.00,VWS V13.01,2013-08-08 20:54:00,
2013-08-08 16:59:00,81.5,64.8,29.12,SSE,164,0.0,0.0,57,0.00,,BKN,0.00,VWS V13.01,2013-08-08 20:59:00,
2013-08-08 17:04:00,81.7,65.0,29.12,South,169,3.6,6.3,57,0.00,,BKN,0.00,VWS V13.01,2013-08-08 21:04:00,
2013-08-08 17:09:00,81.7,64.5,29.12,SE,144,3.1,4.9,56,0.00,,BKN,0.00,VWS V13.01,2013-08-08 21:09:00,
2013-08-08 17:14:00,81.7,64.5,29.12,SSE,151,4.9,6.9,56,0.00,,BKN,0.00,VWS V13.01,2013-08-08 21:14:00,
2013-08-08 17:20:00,82.2,63.9,29.12,South,175,0.0,8.3,54,0.00,,BKN,0.00,VWS V13.01,2013-08-08 21:20:00,
2013-08-08 17:25:00,82.4,64.1,29.12,SSE,163,3.6,4.5,54,0.00,,BKN,0.00,VWS V13.01,2013-08-08 21:25:00,
2013-08-08 17:30:00,82.2,63.4,29.12,SSE,154,5.4,6.7,53,0.00,,BKN,0.00,VWS V13.01,2013-08-08 21:30:00,
2013-08-08 17:35:00,82.2,63.4,29.12,SSE,147,3.6,6.3,53,0.00,,BKN,0.00,VWS V13.01,2013-08-08 21:35:00,
2013-08-08 17:40:00,82.0,63.8,29.12,SSE,164,0.0,4.5,54,0.00,,BKN,0.00,VWS V13.01,2013-08-08 21:40:00,
2013-08-08 17:45:00,81.9,64.6,29.12,SE,144,3.6,3.6,56,0.00,,BKN,0.00,VWS V13.01,2013-08-08 21:45:00,
2013-08-08 17:50:00,81.3,65.1,29.12,SSW,211,4.0,4.0,58,0.00,,BKN,0.00,VWS V13.01,2013-08-08 21:50:00,
2013-08-08 17:55:00,80.8,65.1,29.12,South,176,0.0,2.7,59,0.00,,BKN,0.00,VWS V13.01,2013-08-08 21:55:00,
2013-08-08 18:00:00,80.4,65.8,29.12,SSE,151,2.7,4.5,61,0.00,,BKN,0.00,VWS V13.01,2013-08-08 22:00:00,
2013-08-08 18:05:00,80.1,65.4,29.12,SSW,205,2.7,6.9,61,0.00,,BKN,0.00,VWS V13.01,2013-08-08 22:05:00,
2013-08-08 18:10:00,79.7,65.5,29.12,South,173,5.4,6.3,62,0.00,,BKN,0.00,VWS V13.01,2013-08-08 22:10:00,
2013-08-08 18:15:00,79.3,65.7,29.15,SSE,152,2.7,4.5,63,0.00,,BKN,0.00,VWS V13.01,2013-08-08 22:15:00,
2013-08-08 18:20:00,79.2,65.9,29.15,ESE,116,5.8,6.3,64,0.00,,BKN,0.00,VWS V13.01,2013-08-08 22:20:00,
2013-08-08 18:25:00,78.8,65.6,29.15,SE,132,0.0,2.7,64,0.00,,BKN,0.00,VWS V13.01,2013-08-08 22:25:00,
2013-08-08 18:30:00,78.6,65.9,29.15,ESE,116,0.0,2.7,65,0.00,,BKN,0.00,VWS V13.01,2013-08-08 22:30:00,
2013-08-08 18:35:00,78.4,66.2,29.15,SSE,149,4.5,4.5,66,0.00,,BKN,0.00,VWS V13.01,2013-08-08 22:35:00,
2013-08-08 18:41:00,78.1,66.2,29.15,ESE,122,3.6,3.6,67,0.00,,BKN,0.00,VWS V13.01,2013-08-08 22:41:00,
2013-08-08 18:46:00,77.7,66.3,29.15,ESE,122,0.0,0.0,68,0.00,,BKN,0.00,VWS V13.01,2013-08-08 22:46:00,
2013-08-08 18:51:00,77.2,65.8,29.15,ESE,122,0.0,0.0,68,0.00,,BKN,0.00,VWS V13.01,2013-08-08 22:51:00,
2013-08-08 18:56:00,76.6,65.7,29.15,ESE,122,0.0,0.0,69,0.00,,BKN,0.00,VWS V13.01,2013-08-08 22:56:00,
2013-08-08 19:01:00,76.3,65.8,29.15,ESE,122,0.0,0.0,70,0.00,,BKN,0.00,VWS V13.01,2013-08-08 23:01:00,
2013-08-08 19:06:00,76.1,66.0,29.15,SE,134,0.0,0.0,71,0.00,,BKN,0.00,VWS V13.01,2013-08-08 23:06:00,
2013-08-08 19:11:00,75.9,66.2,29.15,SE,134,0.0,0.0,72,0.00,,BKN,0.00,VWS V13.01,2013-08-08 23:11:00,
2013-08-08 19:16:00,75.7,66.5,29.15,SE,134,0.0,0.0,73,0.00,,BKN,0.00,VWS V13.01,2013-08-08 23:16:00,
2013-08-08 19:20:00,75.6,67.1,29.15,SE,134,0.0,3.6,75,0.00,,BKN,0.00,VWS V13.01,2013-08-08 23:20:00,
2013-08-08 19:26:00,75.4,66.9,29.15,SE,134,0.0,0.0,75,0.00,,BKN,0.00,VWS V13.01,2013-08-08 23:26:00,
2013-08-08 19:32:00,75.0,66.9,29.15,SE,134,0.0,0.0,76,0.00,,BKN,0.00,VWS V13.01,2013-08-08 23:32:00,
2013-08-08 19:37:00,75.0,66.9,29.15,SE,134,0.0,0.0,76,0.00,,BKN,0.00,VWS V13.01,2013-08-08 23:37:00,
2013-08-08 19:42:00,74.8,67.5,29.15,SE,134,0.0,0.0,78,0.00,,BKN,0.00,VWS V13.01,2013-08-08 23:42:00,
2013-08-08 19:47:00,74.8,68.3,29.15,SE,134,0.0,0.0,80,0.00,,BKN,0.00,VWS V13.01,2013-08-08 23:47:00,
2013-08-08 19:52:00,74.5,68.3,29.15,SE,134,0.0,0.0,81,0.00,,BKN,0.00,VWS V13.01,2013-08-08 23:52:00,
2013-08-08 19:57:00,74.5,69.0,29.15,SE,134,0.0,0.0,83,0.00,,BKN,0.00,VWS V13.01,2013-08-08 23:57:00,
2013-08-08 20:03:00,74.3,69.2,29.15,SE,134,0.0,0.0,84,0.00,,BKN,0.00,VWS V13.01,2013-08-09 00:03:00,
2013-08-08 20:08:00,74.1,69.0,29.15,SE,125,0.0,0.0,84,0.00,,BKN,0.00,VWS V13.01,2013-08-09 00:08:00,
2013-08-08 20:13:00,74.1,69.0,29.15,SE,125,0.0,0.0,84,0.00,,BKN,0.00,VWS V13.01,2013-08-09 00:13:00,
2013-08-08 20:18:00,73.9,69.2,29.15,SE,125,0.0,0.0,85,0.00,,BKN,0.00,VWS V13.01,2013-08-09 00:18:00,
2013-08-08 20:24:00,73.8,69.0,29.15,SE,125,0.0,0.0,85,0.00,,BKN,0.00,VWS V13.01,2013-08-09 00:24:00,
2013-08-08 20:29:00,73.8,69.0,29.15,SE,125,0.0,0.0,85,0.00,,BKN,0.00,VWS V13.01,2013-08-09 00:29:00,
2013-08-08 20:34:00,73.8,69.0,29.15,SE,125,0.0,0.0,85,0.00,,BKN,0.00,VWS V13.01,2013-08-09 00:34:00,
2013-08-08 20:39:00,73.8,69.0,29.15,SE,125,0.0,0.0,85,0.00,,BKN,0.00,VWS V13.01,2013-08-09 00:39:00,
2013-08-08 20:44:00,73.6,68.8,29.15,SE,125,0.0,0.0,85,0.00,,BKN,0.00,VWS V13.01,2013-08-09 00:44:00,
2013-08-08 20:49:00,73.6,68.8,29.15,SE,125,0.0,2.7,85,0.00,,BKN,0.00,VWS V13.01,2013-08-09 00:49:00,
2013-08-08 20:54:00,73.6,69.1,29.15,SE,124,3.6,3.6,86,0.00,,BKN,0.00,VWS V13.01,2013-08-09 00:54:00,
2013-08-08 20:59:00,73.6,69.1,29.15,SE,124,0.0,0.0,86,0.00,,BKN,0.00,VWS V13.01,2013-08-09 00:59:00,
2013-08-08 21:04:00,73.4,69.0,29.15,SE,124,0.0,0.0,86,0.00,,BKN,0.00,VWS V13.01,2013-08-09 01:04:00,
2013-08-08 21:09:00,73.4,69.3,29.15,ESE,102,0.0,0.0,87,0.00,,BKN,0.00,VWS V13.01,2013-08-09 01:09:00,
2013-08-08 21:14:00,73.2,69.1,29.15,ESE,102,0.0,0.0,87,0.00,,BKN,0.00,VWS V13.01,2013-08-09 01:14:00,
2013-08-08 21:20:00,73.2,69.1,29.15,ESE,102,0.0,0.0,87,0.00,,BKN,0.00,VWS V13.01,2013-08-09 01:20:00,
2013-08-08 21:25:00,73.2,69.1,29.15,ESE,102,0.0,0.0,87,0.00,,BKN,0.00,VWS V13.01,2013-08-09 01:25:00,
2013-08-08 21:30:00,73.2,69.1,29.15,ESE,102,0.0,0.0,87,0.00,,BKN,0.00,VWS V13.01,2013-08-09 01:30:00,
2013-08-08 21:35:00,73.2,69.1,29.15,ESE,102,0.0,0.0,87,0.00,,BKN,0.00,VWS V13.01,2013-08-09 01:35:00,
2013-08-08 21:40:00,73.2,69.5,29.15,ESE,102,3.1,3.1,88,0.00,,BKN,0.00,VWS V13.01,2013-08-09 01:40:00,
2013-08-08 21:45:00,73.2,69.5,29.15,SSE,156,0.0,0.0,88,0.00,,BKN,0.00,VWS V13.01,2013-08-09 01:45:00,
2013-08-08 21:50:00,73.2,69.5,29.15,SSE,156,0.0,0.0,88,0.00,,BKN,0.00,VWS V13.01,2013-08-09 01:50:00,
2013-08-08 21:55:00,73.2,69.5,29.15,SSE,156,0.0,0.0,88,0.00,,BKN,0.00,VWS V13.01,2013-08-09 01:55:00,
2013-08-08 22:00:00,73.0,69.3,29.15,SE,134,3.1,3.1,88,0.00,,BKN,0.00,VWS V13.01,2013-08-09 02:00:00,
2013-08-08 22:05:00,73.0,69.3,29.15,SE,134,0.0,0.0,88,0.00,,BKN,0.00,VWS V13.01,2013-08-09 02:05:00,
2013-08-08 22:10:00,73.0,69.3,29.15,SE,134,0.0,0.0,88,0.00,,BKN,0.00,VWS V13.01,2013-08-09 02:10:00,
2013-08-08 22:15:00,73.0,69.6,29.15,SE,134,0.0,0.0,89,0.00,,BKN,0.00,VWS V13.01,2013-08-09 02:15:00,
2013-08-08 22:21:00,73.0,69.6,29.15,SE,134,0.0,0.0,89,0.00,,BKN,0.00,VWS V13.01,2013-08-09 02:21:00,
2013-08-08 22:26:00,73.0,69.6,29.15,ESE,113,3.1,3.1,89,0.00,,BKN,0.00,VWS V13.01,2013-08-09 02:26:00,
2013-08-08 22:31:00,73.0,69.6,29.15,ESE,107,0.0,0.0,89,0.00,,BKN,0.00,VWS V13.01,2013-08-09 02:31:00,
2013-08-08 22:36:00,73.0,69.6,29.15,ESE,107,2.7,2.7,89,0.00,,BKN,0.00,VWS V13.01,2013-08-09 02:36:00,
2013-08-08 22:42:00,72.9,69.4,29.15,ESE,107,0.0,0.0,89,0.00,,BKN,0.00,VWS V13.01,2013-08-09 02:42:00,
2013-08-08 22:47:00,72.9,69.4,29.15,ESE,107,0.0,0.0,89,0.00,,BKN,0.00,VWS V13.01,2013-08-09 02:47:00,
2013-08-08 22:52:00,72.9,69.4,29.15,ESE,107,0.0,0.0,89,0.00,,BKN,0.00,VWS V13.01,2013-08-09 02:52:00,
2013-08-08 22:57:00,72.9,69.4,29.15,ESE,107,0.0,0.0,89,0.00,,BKN,0.00,VWS V13.01,2013-08-09 02:57:00,
2013-08-08 23:02:00,72.9,69.4,29.15,ESE,107,0.0,0.0,89,0.00,,BKN,0.00,VWS V13.01,2013-08-09 03:02:00,
2013-08-08 23:07:00,72.9,69.4,29.15,ESE,107,0.0,0.0,89,0.00,,BKN,0.00,VWS V13.01,2013-08-09 03:07:00,
2013-08-08 23:12:00,72.9,69.4,29.15,ESE,107,0.0,0.0,89,0.00,,BKN,0.00,VWS V13.01,2013-08-09 03:12:00,
2013-08-08 23:17:00,72.7,69.3,29.15,ESE,107,3.1,3.1,89,0.00,,BKN,0.00,VWS V13.01,2013-08-09 03:17:00,
2013-08-08 23:22:00,72.7,69.6,29.15,ESE,107,2.7,2.7,90,0.00,,BKN,0.00,VWS V13.01,2013-08-09 03:22:00,
2013-08-08 23:28:00,72.7,69.6,29.15,ESE,107,0.0,0.0,90,0.00,,BKN,0.00,VWS V13.01,2013-08-09 03:28:00,
2013-08-08 23:33:00,72.7,69.6,29.15,ESE,107,0.0,0.0,90,0.00,,BKN,0.00,VWS V13.01,2013-08-09 03:33:00,
2013-08-08 23:38:00,72.7,69.6,29.15,ESE,107,0.0,0.0,90,0.00,,BKN,0.00,VWS V13.01,2013-08-09 03:38:00,
2013-08-08 23:43:00,72.7,69.6,29.15,ESE,107,0.0,0.0,90,0.00,,BKN,0.00,VWS V13.01,2013-08-09 03:43:00,
2013-08-08 23:48:00,72.7,69.6,29.15,ESE,107,0.0,0.0,90,0.00,,BKN,0.00,VWS V13.01,2013-08-09 03:48:00,
2013-08-08 23:54:00,72.7,69.6,29.15,ESE,107,0.0,0.0,90,0.00,,BKN,0.00,VWS V13.01,2013-08-09 03:54:00,
2013-08-08 23:59:00,72.5,69.4,29.12,ESE,107,0.0,0.0,90,0.00,,BKN,0.00,VWS V13.01,2013-08-09 03:59:00,